Location: Agadir Irigdalene
(31.2522°N, 8.7797°W)
Time: 16:23:02
(UTC+00:00)

Sakura Rocket - Pass Details

Date: 01 December 2020
Orbit: 476 x 1742 km, 28.7° (Epoch: 25 January)

Event Time Altitude Azimuth Distance (km) Brightness Sun altitude
Rises 19:48:20 0° 265° (W) 2,563 7.5 -28.5°
Reaches altitude 10° 19:50:22 10° 262° (W) 1,743 6.3 -29.0°
Enters shadow 19:52:36 34° 249° (WSW) 934 4.4 -29.4°
